sat.trackr.live / text

‹ back to catalog

UNKNOWN

NORAD 89379

UNKNOWN UNKNOWN UNKNOWN

§ Identity

Operator
Country
Launch date
Launch site
Launch vehicle
Mass (kg)
RCS (m²)

External: N2YO · Heavens-Above

§ Orbital elements

Epoch: 2026-09-18T08:43:28.846848Z

Period
105.52 min
Inclination
100.4877°
Eccentricity
0.0047956
Mean motion
13.64652519 rev/d
Perigee alt
983.4 km
Apogee alt
1,054.3 km
Semi-major
7,397.0 km
B*
1.7461e-3
RAAN
302.8886°
Arg perigee
156.2333°
Mean anomaly
204.1035°
Rev number
61,889

§ Raw data

UNKNOWN1 89379U          26261.36352832  .00001365  00000+0  17461-2 0  99902 89379 100.4877 302.8886 0047956 156.2333 204.1035 13.64652519618893

JSON: /api/v1/satellites/89379 · /tle

For live sub-satellite position, see the globe view (requires WebGL).

§ Visibility from observer

Set your observer location to see the next 7 days of passes ≥ 10°. The values pass through the URL so the page stays shareable.

No JS? Fill the form by hand. The geolocation button needs JavaScript.